Miscellaneous Local Product
Issued by NWS Hastings, NE

Home | Current Version | Previous Version | Graphics & Text | Print | Product List | Glossary On
Versions: 1 2 3 4 5 6 7 8 9 10 11 12 13 14 15 16 17 18 19 20 21 22 23 24 25 26 27 28 29 30 31 32 33 34 35 36 37 38 39 40 41 42 43 44 45 46 47 48 49 50
000
AXUS43 KGID 221902
MISGRI

GID CWA HOURLY WEATHER ROUNDUP
NATIONAL WEATHER SERVICE HASTINGS NE
100 PM CST WED FEB 22 2017

NOTE: "FAIR" INDICATES FEW OR NO CLOUDS BELOW 12,000 FEET WITH NO
SIGNIFICANT WEATHER AND/OR OBSTRUCTIONS TO VISIBILITY.

...SOUTH CENTRAL NEBRASKA...

CITY           SKY/WX    TMP DP  RH WIND       PRES   REMARKS
GRAND ISLAND   SUNNY     69  28  21 NW17G24   29.71F
HASTINGS       SUNNY     71  34  25 NW17G24   29.72F
KEARNEY        SUNNY     68  30  24 NW10G17   29.74F
ORD            SUNNY     65  25  22 NW23      29.72S
YORK           SUNNY     70  34  26 NW20G26   29.68F
AURORA         SUNNY     70  34  27 NW17G23   29.70F
LEXINGTON      SUNNY     66  25  21 NW16G23   29.76F
HOLDREGE       SUNNY     67  24  19 NW10G18   29.75F
HEBRON         SUNNY     73  33  22 N12G20    29.68F

...NEBRASKA PANHANDLE...

CITY           SKY/WX    TMP DP  RH WIND       PRES   REMARKS
CHADRON        SUNNY     55  21  26 NW22G32   29.79F
ALLIANCE       SUNNY     55  23  28 NW22G35   29.79F
SCOTTSBLUFF    PTSUNNY   53  20  27 W23G29    29.82F
SIDNEY         MOSUNNY   59  14  17 N23G29    29.81F

...WESTERN AND NORTH CENTRAL NEBRASKA...

CITY           SKY/WX    TMP DP  RH WIND       PRES   REMARKS
VALENTINE      MOSUNNY   58  31  35 N14G26    29.76R
AINSWORTH      SUNNY     57  35  43 N21G26    29.76S
ONEILL         SUNNY     63  32  32 NW23G33   29.72S
BROKEN BOW     SUNNY     65  23  20 NW24G32   29.74F
IMPERIAL       SUNNY     62  20  19 NW9       29.81F
NORTH PLATTE   SUNNY     65  22  19 NW16G22   29.79F
MCCOOK         SUNNY     66  27  23 NW12      29.79F

...EASTERN NEBRASKA...

CITY           SKY/WX    TMP DP  RH WIND       PRES   REMARKS
NORFOLK        SUNNY     68  33  27 W18G26    29.66F
SO SIOUX CITY  SUNNY     69  41  36 NW20      29.62F
TEKAMAH        SUNNY     71  39  31 NW18      29.62F
COLUMBUS       SUNNY     70  39  32 NW21      29.68F
ALBION         SUNNY     69  24  18 NW17G25   29.69F
OMAHA EPPLEY   MOSUNNY   71  37  28 N6        29.63F
OFFUTT AFB     SUNNY     70  38  31 NW8       29.64F
MILLARD        SUNNY     72  41  32 NW12      29.64F
LINCOLN        SUNNY     75  37  25 N18       29.66F
NEBRASKA CITY  SUNNY     68  26  20 NW12      29.67S
BEATRICE       SUNNY     75  35  22 NW12      29.67F
FALLS CITY     SUNNY     74  35  24 W12       29.64F

...NORTHERN KANSAS...

CITY           SKY/WX    TMP DP  RH WIND       PRES   REMARKS
GOODLAND       SUNNY     62  21  20 N9        29.84F
HILL CITY      SUNNY     72  31  22 N10       29.78F
NORTON         CLEAR     70  18  13 NW12      29.77
PHILLIPSBURG   SUNNY     72  32  23 W5        29.74F
SMITH CENTER   SUNNY     72  32  23 NW8       29.73F
HAYS             N/A     71  34  25 N13       29.77S
RUSSELL        MOSUNNY  N/A N/A N/A MISG      29.74F
CONCORDIA      SUNNY     73  32  22 NW9       29.69F
SALINA         SUNNY     76  26  15 NW12      29.71F
TOPEKA         CLOUDY    75  36  24 SW12      29.67F



USA.gov is the U.S. government's official web portal to all federal, state and local government web resources and services.